Regional Weather Roundup
Issued by NWS Upton, NY

Current Version | Previous Version | Text Only | Print | Product List | Glossary Off
Versions: 1 2 3 4 5 6 7 8 9 10 11 12 13 14 15 16 17 18 19 20 21 22 23 24 25 26 27 28 29 30 31 32 33 34 35 36 37 38 39 40 41 42 43 44 45 46 47 48 49 50
752 ASUS41 KOKX 201908 RWROKX REGIONAL WEATHER ROUNDUP NATIONAL WEATHER SERVICE NEW YORK NY 200 PM EST FRI JAN 20 2017 NOTE: "FAIR" INDICATES FEW OR NO CLOUDS BELOW 12,000 FEET WITH NO SIGNIFICANT WEATHER AND/OR OBSTRUCTIONS TO VISIBILITY. NYZ071-072-176-178-NJZ106-104-202000- NEW YORK CITY METRO AREA CITY SKY/WX TMP DP RH WIND PRES REMARKS Central Park CLOUDY 45 33 63 VRB3 29.95F Wall St Helipt CLOUDY 44 35 70 CALM 29.95F LaGuardia APRT CLOUDY 46 34 62 SW5 29.93F Kennedy INTL CLOUDY 45 28 51 SE8 29.95F Breezy Point N/A 39 N/A N/A E7 N/A WCI 34 Newark/Liberty CLOUDY 44 35 70 SE5 29.94F Teterboro PTSUNNY 45 34 65 S6 29.92F $$ NYZ177-179-078>081-202000- LONG ISLAND NEW YORK CITY SKY/WX TMP DP RH WIND PRES REMARKS Jones Beach N/A 41 N/A N/A E7 N/A Matinecock PT N/A 39 N/A N/A E10 N/A WCI 32 Farmingdale CLOUDY 43 33 68 SE7 29.94F MacArthur/ISP CLOUDY 44 33 65 SE5 29.94F Shirley CLOUDY 43 33 68 SE3 29.96F Westhampton CLOUDY 43 32 65 SE5 29.97F Southampton NOT AVBL Bridgehampton NOT AVBL East Hampton CLOUDY 40 32 73 CALM 29.96F Montauk N/A 41 33 73 VRB3 29.98F $$ NYZ052-065-067-202000- HUDSON VALLEY CITY SKY/WX TMP DP RH WIND PRES REMARKS White Plains CLOUDY 41 31 67 SE6 29.92F Newburgh CLOUDY 41 34 75 E6 29.93F Montgomery CLOUDY 43 33 68 SW7 29.91F Poughkeepsie CLOUDY 41 31 67 S6 29.92F Albany CLOUDY 39 30 70 S10 29.92F WCI 32 $$ NJZ001-105-106-008-010-013-015-019>022-104-202000- NEW JERSEY CITY SKY/WX TMP DP RH WIND PRES REMARKS Newark/Liberty CLOUDY 44 35 70 SE5 29.94F Teterboro PTSUNNY 45 34 65 S6 29.92F Caldwell PTSUNNY 44 33 65 S6 29.93F Somerville LGT RAIN 43 37 79 S3 29.91F Linden N/A 43 35 73 SE3 29.94F Sussex CLOUDY 42 34 73 S5 29.91F Andover N/A 41 33 73 VRB6 29.91F Trenton RAIN 41 37 86 CALM 29.93S FOG Millville LGT RAIN 41 40 96 E6 29.93F Atlantic City LGT RAIN 43 38 82 E7 29.92F Wrightstown LGT RAIN 42 39 88 E3 29.91S Toms River LGT RAIN 43 39 86 S5 29.95S Belmar LGT RAIN 43 38 82 SE3 29.95F $$ PAZ047>061-062-071-202000- EASTERN PENNSYLVANIA CITY SKY/WX TMP DP RH WIND PRES REMARKS Philadelphia LGT RAIN 40 37 89 CALM 29.94F FOG Allentown RAIN 40 35 83 SE3 29.92F Scranton RAIN 39 37 92 CALM 29.86F FOG $$ CTZ002-004>006-009-010-012-RIZ004-006-007-MAZ004-011-015-202000- SOUTHERN NEW ENGLAND IN CT CITY SKY/WX TMP DP RH WIND PRES REMARKS Bradley INTL CLOUDY 41 30 65 S6 29.96F Hartford CLOUDY 41 30 65 S5 29.96F Danbury CLOUDY 40 31 70 SE6 29.94F Wtrbury/Oxford CLOUDY 39 28 65 S5 29.94F Bridgeport CLOUDY 43 32 65 E3 29.96F Meriden CLOUDY 42 30 62 S7 29.96F New Haven CLOUDY 42 31 64 SE5 29.96F Chester CLOUDY 41 30 65 S5 29.95F Groton CLOUDY 42 31 64 S5 29.97F Wilimantic CLOUDY 42 30 62 SE5 29.97F IN RI CITY SKY/WX TMP DP RH WIND PRES REMARKS Providence PTSUNNY 42 28 57 VRB6 29.97F Block Island NOT AVBL Westerly CLOUDY 43 29 57 CALM 29.98F IN MA CITY SKY/WX TMP DP RH WIND PRES REMARKS Boston CLOUDY 39 33 79 CALM 29.98S Worcester CLOUDY 36 26 67 S7 29.93F WCI 30 Westfield CLOUDY 40 31 70 S6 29.94F Provincetown CLOUDY 42 31 64 W5 29.98F Nantucket CLOUDY 43 30 60 N5 29.97S $$ ANZ330-335-338-340-345-350-353-355-202000- COASTAL MARINE OBSERVATIONS STATION/POSITION TIME SKY/WX TEMP WIND PRES VSBY WAVE AIR SEA DIR/SP/G HT/PER (UTC) (F) (DEG/KT/KT) (MB) (MI) (FT/S) NY HARB ENTRANCE 1750 43 44 80/ 6/ 8 1015.0 3/11 20 S FIRE ISLAND 1850 43 46 60/ 10/ 12 1013.7 5/13 GREAT SOUTH BAY NOT AVBL 23 SSW MONTAUK P 1750 42 48 70/ 6/ 6 1016.1 4/ 9 15 E BARNEGAT LI 1830 47 N/A 5/10 HUDSON CANYON 1750 48 51 1014.6 5/12 KINGS POINT 1830 41 39 1013.9 EXECUTION ROCKS 1845 40 50/ 8/ 10 N/A CENTRAL LI SOUND 1815 40 100/ 2/ 4 N/A 0 EASTERN LI SOUND NOT AVBL ROBBINS REEF 1830 42 160/ 5/ 6 1014.1 $$ >>>>>>>>>>>>>>>>>>>>>>>>>>>> KEY <<<<<<<<<<<<<<<<<<<<<<<<<<< > < > SKY/WX - Sky Condition/Present Weather < > TMP - Temperature in Fahrenheit < > DP - Dew Point in Fahrenheit < > RH - Relative Humidity in Percent < > WIND - Direction (from) and Speed in MPH < > PRES - Mean Sea Level Pressure (inches of Hg) < > WCI - Wind Chill Index < > VSB - VISIBILITY IN MILES < > HX - HEAT INDEX < > TC - TEMPERATURE IN CELSIUS < > VRB - VARIABLE WIND DIRECTION < > < >>>>>>>>>>>>>>>>>>>>>>>>>>>> KEY <<<<<<<<<<<<<<<<<<<<<<<<<<<

USA.gov is the U.S. government's official web portal to all federal, state and local government web resources and services.